Location: Habighorst
(52.7089°N, 10.2278°E)
Time: 14:49:20
(UTC+00:00)

CZ-2C R/B - Visible Passes

Search period start: 19 April 2026 00:00
Search period end: 29 April 2026 00:00
Orbit: 663 x 773 km, 98.5° (Epoch: 19 April)

Date Brightness Start Highest point End Pass type
(mag) Time Alt. Az. Time Alt. Az. Time Alt. Az.
19 Apr 5.2 02:08:35 10° ENE 02:10:29 12° E 02:12:21 10° ESE visible
20 Apr 4.3 02:54:23 10° NNE 02:58:40 29° E 03:02:48 10° SSE visible
21 Apr 5.3 02:06:01 10° ENE 02:07:28 11° E 02:08:53 10° E visible
22 Apr 4.4 02:51:30 10° NE 02:55:39 27° E 02:59:40 10° SSE visible
23 Apr 5.5 02:03:44 10° ENE 02:04:25 10° E 02:05:07 10° E visible
24 Apr 4.5 02:48:37 10° NE 02:52:39 25° E 02:56:33 10° SSE visible
26 Apr 4.6 02:45:44 10° NE 02:49:37 24° E 02:53:24 10° SE visible
28 Apr 4.7 02:42:51 10° NE 02:46:36 22° E 02:50:15 10° SE visible
